Terminal Aerodrome Forecast
Issued by NWS

Home | Current Version | Previous Version | Text Only | Print | Product List | Glossary On
Versions: 1 2 3 4 5 6 7 8 9 10 11 12 13 14 15 16 17 18 19 20 21 22 23 24 25 26 27 28 29 30 31 32 33 34 35 36 37 38 39 40 41 42 43 44 45 46 47 48 49 50
000
FTUS41 KCTP 061807 RRC
TAFUNV
TAF
KUNV 061807Z 0618/0718 VRB03KT 6SM -SHRA HZ SCT025 BKN050
     FM062100 15004KT 6SM HZ VCSH OVC035
     FM070000 18005KT 5SM BR VCSH OVC030
     FM070600 23005KT 4SM BR OVC009
     FM071500 24005KT P6SM BKN250=

USA.gov is the U.S. government's official web portal to all federal, state and local government web resources and services.